This is the latest recevied weather packets stored in our database for station/object OM6ACB-6. If no packets are shown the sender has not sent any weather packets the latest 10 day(s).
| Time | Temp. | Humidity | Pressure | Rain* | Wind** | Luminosity | Snow |
|---|---|---|---|---|---|---|---|
| 1788157350 | 19.44° C | 23% | 1021.2 hPa | 0 mm | - | - | - |
| 1788156749 | 18.89° C | 23% | 1021.1 hPa | 0 mm | - | - | - |
| 1788156149 | 19.44° C | 23% | 1021.1 hPa | 0 mm | - | - | - |
| 1788155549 | 18.89° C | 23% | 1021.1 hPa | 0 mm | - | - | - |
| 1788154948 | 18.33° C | 23% | 1021 hPa | 0 mm | - | - | - |
| 1788154348 | 17.78° C | 24% | 1020.9 hPa | 0 mm | - | - | - |
| 1788153748 | 16.67° C | 24% | 1020.7 hPa | 0 mm | - | - | - |
| 1788153148 | 15.56° C | 25% | 1020.6 hPa | 0 mm | - | - | - |
| 1788152547 | 16.67° C | 24% | 1020.8 hPa | 0 mm | - | - | - |
| 1788151947 | 12.78° C | 26% | 1020.3 hPa | 0 mm | - | - | - |
| 1788151347 | 12.22° C | 26% | 1020.1 hPa | 0 mm | - | - | - |
| 1788150746 | 11.67° C | 42% | 1020 hPa | 0 mm | - | - | - |
| 1788150146 | 10.56° C | 60% | 1019.9 hPa | 0 mm | - | - | - |
| 1788149546 | 10.56° C | 61% | 1019.8 hPa | 0 mm | - | - | - |
| 1788148945 | 9.44° C | 62% | 1019.6 hPa | 0 mm | - | - | - |
| 1788148345 | 10° C | 62% | 1019.5 hPa | 0 mm | - | - | - |
| 1788147745 | 10° C | 62% | 1019.5 hPa | 0 mm | - | - | - |
| 1788147145 | 10° C | 60% | 1019.6 hPa | 0 mm | - | - | - |
| 1788146544 | 10.56° C | 61% | 1019.6 hPa | 0 mm | - | - | - |
| 1788145944 | 10° C | 60% | 1019.7 hPa | 0 mm | - | - | - |
| 1788145347 | 10.56° C | 60% | 1019.8 hPa | 0 mm | - | - | - |
| 1788144743 | 10° C | 59% | 1019.9 hPa | 0 mm | - | - | - |
| 1788144143 | 10° C | 59% | 1020 hPa | 0 mm | - | - | - |
| 1788143543 | 10.56° C | 57% | 1020 hPa | 0 mm | - | - | - |
| 1788142943 | 10.56° C | 57% | 1020 hPa | 0 mm | - | - | - |
* Rain latest hour (hover to see other rain measurements)
** Current wind speed in m/s (hover to see current wind gust speed)